Location: Calmejanne
(44.7523°N, 1.9418°E)
Time: 16:27:41
(UTC+00:00)

DEBRIS - Pass Details

Date: 14 May 2026
Orbit: 296 x 14420 km, 49.4° (Epoch: 10 June)

Event Time Altitude Azimuth Distance (km) Brightness Sun altitude
Rises 20:35:02 0° 268° (W) 2,133 6.6 -12.7°
Reaches altitude 10° 20:36:24 10° 274° (W) 1,479 5.8 -12.9°
Maximum altitude 20:39:11 54° 354° (N) 772 3.8 -13.2°
Drops below altitude 10° 20:46:46 10° 72° (ENE) 3,961 6.9 -14.2°
Sets 20:53:04 0° 77° (ENE) 6,655 8.0 -14.9°
